www.pogodaiklimat.ru

Погода и климат >> Архив погоды >> Россия >> Иркутская область >> Балаганск


АРХИВ ПОГОДЫ в Балаганске

Время (UTC), дата Ветер
(напр.,м/с)
 
Видим.   Явления Облачность Т
(С)
Тd
(С)
f
(%)
Тe
(С)
Тes
(С)
Комфортность P
(гПа)
Po
(гПа)
Тmin
(С)
Tmax
(С)
R
(мм)
R24
(мм)
S
(см)
21 15.09 З 2 н/о слаб. ливневой дождь 10/8 600 м
[Cb cap Ac As]
+7.8 +5.8 87 +6 +6 1012.4 961.6
00 16.09 СЗ 4
{11}
50 км слаб. ливневой дождь 10/10 600 м
[Cb cap]
+7.3 +5.1 86 +4 +4 1014.5 963.5 +7.2 1
03 16.09 СЗ 5-10
{10}
50 км {ливн. осадки} 10/8 600 м
[Cb cap Ci fib]
+8.5 +2.3 65 +5 +6 1016.9 965.9 +6.7
06 16.09 С 5
{12}
50 км {ливн. осадки} 8/6 600 м
[Cb cap Ci sp]
+9.9 +0.1 50 +7 +9 1017.9 967.1
09 16.09 СЗ 5
{11}
50 км 5/4 600 м
[Cb cap Ci sp]
+10.4 -2.3 41 +8 +9 1019.2 968.4
12 16.09 СЗ 3
{10}
50 км 10/3 600 м
[Sc Ac lent Cs]
+6.1 -2.0 56 +3 +3 1022.9 971.2 +10.8 0.0
15 16.09 З 2 н/о 8/3 600 м
[Sc Ac lent Cs]
+2.3 -2.6 70 -1 -1 1026.2 973.6
18 16.09 ЮЗ 2 н/о 10/3 600 м
[Sc Ac trans Cs]
+2.9 -1.1 75 0 0 1026.9 974.4
21 16.09 ЮЗ 1 н/о 10/3 600 м
[Sc Ac As]
+3.9 +0.3 77 +3 +3 1026.6 974.3
00 17.09 ЮВ 1 50 км 10/4 600 м
[Sc Ac As]
+5.7 +1.4 74 +5 +5 1026.7 974.7 +1.9
03 17.09 Ю 2 50 км 8/3 600 м
[Sc Ac trans Ci fib]
+10.1 +2.8 60 +9 +11 1025.8 974.7
06 17.09 ЮВ 7 50 км ясно +12.2 +6.0 66 +9 +12 1024.0 973.4
09 17.09 В 5 50 км ясно +13.9 +6.6 61 +12 +13 1022.1 971.9
12 17.09 Ю 1 50 км ясно +11.8 +5.9 67 +12 +12 1021.5 971.0 +14.2
15 17.09 штиль 0 н/о ясно +7.0 +5.0 87 +6 +6 1022.4 970.9
18 17.09 ЮЗ 1 н/о ясно +6.0 +5.0 93 +5 +5 1021.1 969.5
21 17.09 штиль 0 н/о 10/0
[Cs]
+6.6 +4.1 84 +6 +6 1019.8 968.4
00 18.09 ЮВ 1 50 км 10/3 600 м
[Sc Ac trans Ci fib]
+8.5 +5.7 83 +8 +8 1019.6 968.5 +4.7
03 18.09 В 4 50 км 10/3 600 м
[Sc Ac trans Cs]
+12.1 +7.0 71 +10 +11 1019.1 968.7
06 18.09 В 5 50 км 10/3 600 м
[Sc Ac trans Cs]
+14.3 +9.3 72 +13 +14 1017.8 967.9
09 18.09 В 3 50 км 8/4 600 м
[Sc diur, vesp Ac trans Ci fib]
+15.1 +11.0 76 +14 +15 1016.1 966.4
12 18.09 В 1 н/о 9/4 600 м
[Sc diur, vesp Ac trans Ci fib]
+13.2 +11.1 87 +13 +13 1017.1 967.1 +16.3
15 18.09 СЗ 2 н/о слаб. ливневой дождь 10/5 600 м
[Cb cap Ac As]
+12.0 +9.7 86 +11 +11 1020.2 969.8
18 18.09 ЮЗ 1 н/о {ливн. осадки} 10/6 600 м
[Cb cap Ac As]
+9.8 +8.5 92 +9 +9 1021.6 970.7
21 18.09 З 1 н/о 10/4 600 м
[Cb cap Ac As]
+9.2 +8.0 92 +8 +8 1022.0 971.0
00 19.09 штиль 0 50 км 10/8 600 м
[Cb cap Ac As]
+9.3 +8.2 93 +8 +8 1023.2 972.2 +8.9 1
03 19.09 З 3 50 км 10/6 600 м
[Cb cap Ac trans Cs]
+12.8 +8.1 73 +11 +12 1022.7 972.3
06 19.09 В 3 50 км 8/3 600 м
[Cb cap Ac trans Ci fib]
+14.7 +9.5 71 +14 +17 1021.4 971.4
09 19.09 В 3 50 км 8/4 600 м
[Cb cap Ac trans Ci fib]
+15.9 +10.0 68 +15 +16 1020.5 970.7
12 19.09 ЮЗ 1 н/о 10/1 600 м
[Sc diur, vesp Cs]
+11.7 +7.3 74 +12 +12 1022.0 971.4 +17.8
15 19.09 штиль 0 н/о 10/0
[Cs]
+7.7 +5.9 88 +7 +7 1023.4 972.0
18 19.09 ЮЗ 1 н/о 10/0
[Cs]
+5.9 +5.3 96 +5 +5 1023.3 971.6
21 19.09 Ю 1 н/о 10/0
[Cs]
+6.6 +6.1 97 +5 +5 1022.6 971.1
00 20.09 ЮВ 2 50 км 8/3 600 м
[Sc Ac trans Cs]
+8.8 +6.9 88 +7 +7 1022.4 971.3 +5.7
03 20.09 В 6 50 км 10/0
[Cs]
+13.0 +9.3 78 +11 +12 1021.0 970.7
06 20.09 В 6 50 км ясно +15.9 +10.6 71 +15 +17 1018.9 969.3
09 20.09 В 3 50 км 8/0
[Cs]
+17.8 +11.5 67 +18 +19 1016.8 967.5
12 20.09 штиль 0 н/о 8/0
[Cs]
+13.9 +9.9 77 +14 +14 1016.6 966.7 +18.3
15 20.09 штиль 0 н/о 10/0
[Cs]
+9.9 +6.8 81 +9 +9 1017.4 966.7
18 20.09 штиль 0 н/о 8/0
[Cs]
+9.1 +8.2 94 +8 +8 1016.6 965.8
21 20.09 ЮВ 1 н/о 8/0
[Cs]
+11.3 +7.1 75 +11 +11 1016.1 965.7
00 21.09 Ю 1 50 км 4/0
[Cs]
+10.2 +6.4 77 +10 +10 1017.0 966.4 +7.6
03 21.09 В 5 50 км 3/0
[Cs]
+14.5 +9.3 71 +13 +15 1016.7 966.9
06 21.09 В 3 50 км 3/0
[Cs]
+18.1 +9.5 57 +18 +24 1015.8 966.6
09 21.09 В 2 50 км 8/0
[Cs]
+20.9 +10.7 52 +23 +25 комфорт 1013.9 965.3
12 21.09 СЗ 4 н/о 10/4 600 м
[Sc Ac trans Cs]
+17.1 +10.4 65 +17 +17 1015.9 966.5 +20.9
15 21.09 С 6-11
{14}
н/о 6/6 600 м
[Cb cap]
+14.0 +6.0 59 +12 +12 1021.8 971.6
18 21.09 С 2
{11}
н/о 8/5 600 м
[Cb cap Ac trans Ci fib]
+11.7 +5.1 64 +11 +11 1023.4 972.7
21 21.09 З 2 н/о 10/6 600 м
[Cb cap Ac trans]
+9.6 +5.8 77 +8 +8 1026.0 974.8
00 22.09 З 1 50 км 9/9 600 м
[Cb cap]
+9.2 +6.2 81 +9 +9 1027.6 976.3 +8.6
03 22.09 В 2 50 км 8/1 600 м
[Sc diur, vesp Ac trans Ci fib]
+13.3 +7.7 69 +13 +16 1027.9 977.3
06 22.09 В 5 50 км 10/4 600 м
[Sc diur, vesp Ac trans Ci fib]
+15.3 +3.1 44 +14 +15 1026.0 975.8
09 22.09 В 3 50 км 10/1 600 м
[Sc diur, vesp Ac trans Cs]
+16.1 +3.2 42 +16 +17 1024.6 974.6
12 22.09 Ю 1 н/о 10/1 600 м
[Sc Ac trans Cs]
+10.8 +4.4 65 +11 +11 1026.0 975.0 +16.4
15 22.09 штиль 0 н/о ясно +6.4 +1.9 73 +6 +6 1026.6 974.8
18 22.09 З 1 н/о ясно +3.7 +0.7 81 +2 +2 1026.2 973.9

 

Местоположение метеостанции Балаганск (Иркутская область, Россия): широта 54.00 долгота 103.00 высота над уровнем моря 427 м.

В архиве по умолчанию представлена погода в Балаганске за последнюю неделю. Архивные данные за месяц целиком и за предыдущие месяцы, начиная с января 2011 года, Вы можете получить, выбрав интересующий диапазон дат из раскрывающегося списка и нажав кнопку "Ввод!".


*Определитесь, кто Вы:
робот инопланетянин человек

Внимание! Время в таблицах - всемирное. Для получения местного времени необходимо прибавить поправку, которая равна 8 ч.

Смотрите также архив погоды в соседних городах и на ближайших метеорологических станциях:

Погода в Заларях (Иркутская область, Россия) (60 км)
Погода в Зиме (Иркутская область, Россия) (66 км)
Погода в Черемхово (Иркутская область, Россия) (91 км)
Погода в Инге (Иркутская область, Россия) (136 км)
Погода в Сараме (Иркутская область, Россия) (139 км)
Погода в Жигалове (Иркутская область, Россия) (162 км)
Погода в Тулуне (Иркутская область, Россия) (169 км)
Погода в Усть-Ордынском (Иркутская область, Россия) (174 км)
Погода в Ангарск (Иркутская область, Россия) (177 км)
Погода в Качуге (Иркутская область, Россия) (190 км)

Пояснения к столбцам:

Ветер - указаны скорость ветра в м/с - средняя за 10 мин, порывы в срок и между сроками (в фигурных скобках) и направление, откуда дует ветер: С - северный, СВ - северо-восточный, В - восточный, ЮВ - юго-восточный, Ю - южный, ЮЗ - юго-западный, З - западный, СЗ - северо-западный.
Видимость - горизонтальная дальность видимости в метрах или километрах. При видимости от 1 до 10 км при отсутствии осадков обычно наблюдается дымка, при ухудшении видимости до 1 км и менее - туман. В сухую погоду видимость может ухудшаться дымом, пылью или мглою.
Явления - указаны атмосферные явления, наблюдавшиеся в срок или в последний час перед сроком; фигурными скобками обозначены явления, наблюдавшиеся между сроками (за 1-3 часа до срока); квадратными скобками обозначены град или гололедные отложения с указанием их диаметра в мм.
Облачность - указаны через наклонную черту общая и нижняя облачность в баллах и высота нижней границы облаков в метрах; квадратными скобками обозначены формы облаков: Ci - перистые, Cs - перисто-слоистые, Cc - перисто-кучевые, Ac - высококучевые, As - высокослоистые, Sc - слоисто-кучевые, Ns - слоисто-дождевые, Cu - кучевые, Cb - кучево-дождевые. Подробнее классификацию облаков см. в Атласе облаков (PDF).
T - Температура воздуха - температура, измеренная на высоте 2 м над землей.
Td - Температура точки росы - температура, при понижении до которой содержащийся в воздухе водяной пар достигнет насыщения.
f - Относительная влажность воздуха - влажноcть воздуха, измеренная на высоте 2 м над землей.
Te - Эффективная температура - температура, которую ощущает одетый по сезону человек в тени. Характеристика душности погоды. При расчете учитывается влияние влажности воздуха и скорости ветра на теплоощущения человека.
Tes - Эффективная температура на солнце - температура, которую ощущает человек, с поправкой на солнечный нагрев. Характеристика знойности погоды. Зависит от высоты солнца над горизонтом, облачности и скорости ветра. Ночью, в пасмурную погоду, а также при ветре 12 м/с и более поправка равна нулю.
P - Атмосферное давление - приведенное к уровню моря атмосферное давление.
Po - Атмосферное давление - измеренное на уровне метеостанции атмосферное давление.
Tmin - Минимальная температура - минимум температуры воздуха на высоте 2 м над землей.
Tmax - Максимальная температура - максимум температуры воздуха на высоте 2 м над землей.
R - Количество осадков - Количество выпавших осадков за период времени, мм. При наведении курсора мыши на число - период времени, за который выпало указанное количество осадков.
R24 - Количество осадков - Количество выпавших осадков за 24 часа, мм.
S - Снежный покров - Высота снежного покрова, см. При наведении курсора мыши на число - состояние снежного покрова и степень покрытия местности в баллах.